Location: Gombori
(14.9797°N, 2.9419°W)
Time: 22:34:08
(UTC+00:00)

CSL-04 Debris - Pass Details

Date: 29 July 2021
Orbit: 826 x 849 km, 98.9° (Epoch: 20 September)

Event Time Altitude Azimuth Distance (km) Brightness Sun altitude
Exits shadow 19:38:14 - 158° (SSE) 2,678 6.4 -13.4°
Reaches altitude 10° 19:38:49 10° 158° (SSE) 2,451 6.2 -13.5°
Maximum altitude 19:44:13 66° 76° (ENE) 916 4.2 -14.7°
Drops below altitude 10° 19:49:38 10° 355° (N) 2,465 7.0 -15.9°
Sets 19:52:01 0° 353° (N) 3,402 7.8 -16.4°
